GW4771 Weather Reports


time (UTC)temp
C
wind
direction
speed
KPH
gust
KPH
rain 1hr
cm
rain 24hr
cm
rain mn
cm
humidity
%
barometer
mb
20260506183021 6 27 4.8 6.4 0.71 4.83 4.09 99 1006.7
20260506182021 6 26 4.8 8.0 0.74 4.72 3.99 99 1006.8
20260506181021 6 25 4.8 6.4 0.79 4.67 3.91 99 1006.9
20260506180021 6 13 4.8 8.0 0.81 4.57 3.81 99 1006.9
20260506175044 7 15 4.8 9.7 0.79 4.45 3.68 99 1007.0
20260506174019 7 3 3.2 9.7 0.66 4.22 3.45 99 1006.6
20260506173041 7 97 1.6 1.6 0.64 4.14 3.35 99 1006.6
20260506172021 7 16 1.6 3.2 0.71 4.01 3.25 99 1006.8
20260506171021 7 18 1.6 3.2 0.71 3.89 3.12 99 1007.1
20260506170022 7 21 1.6 4.8 0.71 3.76 3.00 99 1007.2
20260506165102 7 18 3.2 4.8 0.76 3.66 2.90 99 1007.3
20260506164022 7 37 3.2 6.4 0.94 3.56 2.79 99 1007.4
20260506163102 7 11 3.2 3.2 1.02 3.48 2.72 99 1007.4
20260506162022 7 347 1.6 3.2 0.99 3.30 2.54 99 1007.1
20260506161022 7 21 1.6 3.2 1.04 3.17 2.41 99 1007.3
20260506160022 7 25 1.6 3.2 1.09 3.07 2.31 98 1007.4
20260506155023 7 6 1.6 3.2 1.09 2.90 2.13 98 1007.6
20260506154023 7 13 3.2 4.8 1.02 2.62 1.85 98 1007.5
20260506153103 7 10 1.6 3.2 0.97 2.46 1.70 98 1007.7
20260506152023 8 333 3.2 4.8 0.91 2.31 1.55 98 1007.8
20260506151023 8 343 3.2 3.2 0.79 2.13 1.37 98 1008.0
20260506150024 8 340 3.2 4.8 0.69 1.98 1.22 98 1008.3
20260506145024 8 3 1.6 3.2 0.56 1.80 1.04 98 1008.5
20260506144024 8 44 0.0 1.6 0.41 1.60 0.84 97 1008.4